Flag for Sweden Weather past 2 weeks in Eskilstuna, Sweden

Now
41 °F

Drizzle. Low clouds.


Feels Like: 32 °F
Forecast: 32 / 44 °F
Wind: 18 mph from North

Location: Vasteras / Hasslo

Current Time: Mar 30, 2015 at 3:59:04 PM

Latest Report: Mar 30, 2015 at 3:20 PM


Visibility: N/A

Pressure: 28.94 "Hg

Humidity: 93%

Dew point: 39 °F

Location of EskilstunaLocation

Historic Weather in Eskilstuna — Graph

°F

Eskilstuna temperature yesterday

Maximum temperature yesterday: 39 °F (at 11:20 AM)
Minimum temperature yesterday: 34 °F (at 12:20 AM)
Average temperature yesterday: 37 °F

Past Weeks' High & Low Weather Summary

 TemperatureHumidityPressure
High55 °F (Mar 18, 3:20 PM)100% (Mar 18, 5:20 AM)30.89 "Hg (Mar 18, 5:20 AM)
Low14 °F (Mar 22, 12:50 AM)28% (Mar 24, 1:50 PM)28.94 "Hg (Mar 30, 9:20 AM)
Average37 °F77%30.06 "Hg
* Reported Mar 15 1:20 PM — Mar 30 2:50 PM, Eskilstuna, Weather by CustomWeather, © 2015

Note: Actual official high and low records may vary slightly from our data, if they occured in-between our weather recording intervals... More about our weather records

Advertising

Eskilstuna weather history for previous 24 hours

 ConditionsComfort  
Time TempWeatherWind HumidityBarometerVisibility
2:50 PM
Mon, Mar 30
43 °FDrizzle. Partly sunny.16 mph87%28.94 "HgN/A
2:20 PM43 °FBroken clouds.13 mph87%28.94 "HgN/A
1:50 PM43 °FPartly sunny.13 mph93%28.94 "HgN/A
1:20 PM43 °FPartly sunny.13 mph93%28.94 "HgN/A
12:50 PM43 °FPartly sunny.13 mph87%28.94 "HgN/A
12:20 PM43 °FBroken clouds.12 mph87%28.94 "HgN/A
11:50 AM43 °FBroken clouds.12 mph87%28.94 "HgN/A
11:20 AM43 °FPartly sunny.12 mph87%28.94 "HgN/A
10:50 AM43 °FPartly sunny.10 mph87%28.94 "HgN/A
10:20 AM41 °FPartly sunny.9 mph93%28.94 "HgN/A
9:50 AM41 °FPartly sunny.8 mph93%28.94 "HgN/A
9:20 AM41 °FFog.7 mph93%28.94 "Hg6 mi
8:50 AM41 °FPartly sunny.6 mph93%28.97 "HgN/A
8:20 AM39 °FPartly sunny.7 mph100%28.97 "HgN/A
7:50 AM39 °FFog.7 mph100%28.97 "Hg6 mi
7:20 AM39 °FFog.6 mph100%28.97 "Hg2 mi
6:50 AM39 °FFog.5 mph100%28.97 "Hg1 mi
6:20 AM39 °FFog.3 mph100%28.97 "Hg1 mi
5:50 AM39 °FDrizzle. Fog.5 mph100%28.97 "Hg1 mi
5:20 AM39 °FDrizzle. Dense fog.3 mph100%28.97 "Hg1 mi
4:50 AM39 °FFog.3 mph100%28.97 "Hg1 mi
4:20 AM39 °FFog.6 mph100%28.97 "Hg1 mi
3:50 AM39 °FPassing clouds.5 mph100%28.97 "Hg3 mi
3:20 AM39 °FPassing clouds.6 mph100%29.00 "Hg3 mi
2:50 AM39 °FLight rain. Passing clouds.5 mph100%29.00 "Hg4 mi
2:20 AM39 °FPassing clouds.3 mph100%29.00 "Hg2 mi
1:50 AM39 °FPartly cloudy.3 mph100%29.03 "Hg3 mi
1:20 AM39 °FPassing clouds.3 mph100%29.03 "Hg4 mi
12:50 AM39 °FLight rain. Partly cloudy.3 mph93%29.03 "Hg4 mi
12:20 AM39 °FFog.3 mph93%29.03 "Hg6 mi
11:50 PM
Sun, Mar 29
39 °FFog.7 mph93%29.03 "Hg6 mi
11:20 PM39 °FPassing clouds.10 mph93%29.03 "HgN/A
10:50 PM39 °FPassing clouds.9 mph93%29.06 "HgN/A
10:20 PM39 °FPassing clouds.9 mph93%29.06 "HgN/A
9:50 PM37 °FPassing clouds.10 mph100%29.06 "HgN/A
9:20 PM39 °FMostly cloudy.12 mph93%29.06 "HgN/A
8:50 PM37 °FLow clouds.9 mph100%29.06 "HgN/A
8:20 PM37 °FLow clouds.6 mph93%29.06 "HgN/A
7:50 PM37 °FLow clouds.7 mph93%29.09 "HgN/A
7:20 PM37 °FLow clouds.7 mph93%29.09 "HgN/A
6:50 PM37 °FDrizzle. Partly sunny.7 mph93%29.09 "HgN/A
6:20 PM37 °FLight rain. Partly sunny.9 mph93%29.09 "HgN/A
5:50 PM37 °FLight rain. Partly sunny.8 mph93%29.09 "HgN/A
5:20 PM37 °FLight rain. Partly sunny.10 mph93%29.12 "HgN/A
4:50 PM37 °FLight rain. Partly sunny.13 mph93%29.12 "HgN/A
4:20 PM37 °FLight rain. Partly sunny.14 mph93%29.15 "HgN/A
3:50 PM37 °FLight rain. Partly sunny.15 mph93%29.15 "Hg6 mi
3:20 PM39 °FLight rain. Passing clouds.18 mph87%29.18 "HgN/A
Weather by CustomWeather, © 2015

See weather overviewHow to use our weather pages